DLH2PC EDDM-SLLP

Flight info

Callsign DLH2PC
Flight time N/A
Altitude 37000
Route ALG2N ALG Y109 UMTEX Y100 TRA Z69 OLBEN N869 NINTU DCT PIMAK DCT TITVA DCT LACOU DCT URUNA P181 NEA N976 ARDID DCT RARUR DCT OLBOD DCT NASAS DCT PECKY Q205 NELSO N741 EDUMO UN741 MERUD DCT MOVGA UM799 EGIMI UL540 EROGI UM668 TRI UW568 KIGAX
Aircraft A343/H-SDE2E3FGHIJ4J5M1RWXY/LB1D1

Departure

Time 2026-05-05 23:10
Airport Munich Airport (EDDM)

Arrival

Time N/A
Airport El Alto International Airport (SLLP)
Time Latitude Longitude Altitude Speed Heading
2026-05-05 22:37 48.35243 11.80018 1489 ft 0 kts 263°
2026-05-05 22:59 48.35244 11.80032 1489 ft 4 kts 257°
2026-05-05 22:59 48.35254 11.80068 1481 ft 4 kts 238°
2026-05-05 22:59 48.35266 11.80103 1474 ft 3 kts 261°
2026-05-05 22:59 48.35269 11.80134 1474 ft 4 kts 251°
2026-05-05 23:00 48.35296 11.80171 1474 ft 3 kts 173°
2026-05-05 23:00 48.35322 11.80166 1474 ft 3 kts 173°
2026-05-05 23:00 48.35324 11.80166 1474 ft 0 kts 173°
2026-05-05 23:04 48.35317 11.80167 1474 ft 2 kts 173°
2026-05-05 23:04 48.35288 11.80172 1474 ft 7 kts 173°
2026-05-05 23:04 48.35214 11.80185 1479 ft 14 kts 173°
2026-05-05 23:04 48.35136 11.80151 1474 ft 10 kts 234°
2026-05-05 23:05 48.35130 11.80066 1479 ft 7 kts 264°
2026-05-05 23:05 48.35122 11.79973 1480 ft 12 kts 263°
2026-05-05 23:05 48.35110 11.79828 1482 ft 15 kts 263°
2026-05-05 23:05 48.35091 11.79684 1477 ft 11 kts 234°
2026-05-05 23:06 48.35024 11.79668 1484 ft 9 kts 178°
2026-05-05 23:06 48.34957 11.79676 1482 ft 12 kts 173°
2026-05-05 23:06 48.34865 11.79694 1479 ft 15 kts 173°
2026-05-05 23:06 48.34809 11.79771 1479 ft 10 kts 89°
2026-05-05 23:07 48.34820 11.79912 1482 ft 17 kts 83°
2026-05-05 23:07 48.34836 11.80116 1479 ft 21 kts 84°
2026-05-05 23:07 48.34835 11.80317 1477 ft 18 kts 116°
2026-05-05 23:07 48.34738 11.80396 1475 ft 15 kts 171°
2026-05-05 23:08 48.34641 11.80415 1477 ft 13 kts 173°
2026-05-05 23:08 48.34557 11.80417 1476 ft 11 kts 187°
2026-05-05 23:08 48.34492 11.80382 1474 ft 9 kts 213°
2026-05-05 23:08 48.34469 11.80314 1477 ft 6 kts 262°
2026-05-05 23:09 48.34465 11.80257 1475 ft 5 kts 263°
2026-05-05 23:09 48.34450 11.80072 1476 ft 37 kts 263°
2026-05-05 23:09 48.34402 11.79444 1481 ft 84 kts 263°
2026-05-05 23:09 48.34316 11.78348 1489 ft 126 kts 264°
2026-05-05 23:10 48.34200 11.76859 1484 ft 160 kts 263°
2026-05-05 23:10 48.34088 11.75130 1794 ft 164 kts 263°
2026-05-05 23:10 48.33974 11.73421 2209 ft 171 kts 263°
2026-05-05 23:10 48.33850 11.71591 2582 ft 177 kts 263°
2026-05-05 23:11 48.33704 11.69702 3000 ft 185 kts 263°
2026-05-05 23:11 48.33543 11.67723 3238 ft 199 kts 263°
2026-05-05 23:11 48.33360 11.65549 3342 ft 217 kts 263°
2026-05-05 23:11 48.33173 11.63217 3504 ft 234 kts 264°
2026-05-05 23:12 48.32994 11.60705 3665 ft 249 kts 263°
2026-05-05 23:12 48.32805 11.58032 3937 ft 263 kts 263°
2026-05-05 23:12 48.32605 11.55260 4378 ft 270 kts 264°
2026-05-05 23:12 48.32399 11.52437 4893 ft 274 kts 264°
2026-05-05 23:13 48.32192 11.49613 5405 ft 277 kts 263°
2026-05-05 23:13 48.31978 11.46726 5940 ft 279 kts 263°
2026-05-05 23:13 48.31761 11.43808 6451 ft 282 kts 263°
2026-05-05 23:13 48.31541 11.40863 6945 ft 285 kts 263°
2026-05-05 23:14 48.31319 11.37897 7448 ft 287 kts 263°
2026-05-05 23:14 48.31095 11.34912 7973 ft 288 kts 262°
2026-05-05 23:14 48.30868 11.31899 8448 ft 291 kts 262°
2026-05-05 23:14 48.30463 11.28914 8907 ft 293 kts 249°
2026-05-05 23:15 48.29527 11.26181 9421 ft 294 kts 239°
2026-05-05 23:15 48.28438 11.23574 9910 ft 296 kts 238°
2026-05-05 23:15 48.27318 11.20940 10173 ft 304 kts 238°
2026-05-05 23:15 48.26162 11.18209 10328 ft 316 kts 238°
2026-05-05 23:16 48.24968 11.15377 10486 ft 327 kts 238°
2026-05-05 23:16 48.23736 11.12451 10635 ft 337 kts 238°
2026-05-05 23:16 48.22465 11.09431 10876 ft 345 kts 238°
2026-05-05 23:16 48.21174 11.06365 11222 ft 350 kts 238°
2026-05-05 23:17 48.19988 11.03222 11583 ft 353 kts 245°
2026-05-05 23:17 48.18994 10.99837 11989 ft 356 kts 247°
2026-05-05 23:17 48.18056 10.96387 12379 ft 359 kts 248°
2026-05-05 23:17 48.17149 10.92876 12767 ft 362 kts 249°
2026-05-05 23:18 48.16259 10.89333 13181 ft 365 kts 249°
2026-05-05 23:18 48.15369 10.85755 13581 ft 368 kts 250°
2026-05-05 23:18 48.14472 10.82157 13946 ft 370 kts 249°
2026-05-05 23:18 48.13565 10.78532 14289 ft 373 kts 249°
2026-05-05 23:19 48.12646 10.74884 14651 ft 376 kts 249°
2026-05-05 23:19 48.11718 10.71218 15056 ft 377 kts 249°
2026-05-05 23:19 48.10786 10.67547 15469 ft 378 kts 249°
2026-05-05 23:19 48.09846 10.63854 15839 ft 380 kts 248°
2026-05-05 23:20 48.08900 10.60144 16209 ft 383 kts 248°
2026-05-05 23:20 48.07947 10.56416 16586 ft 385 kts 248°
2026-05-05 23:20 48.06987 10.52663 16951 ft 387 kts 248°
2026-05-05 23:20 48.06035 10.48949 17319 ft 389 kts 248°
2026-05-05 23:21 48.05066 10.45174 17675 ft 391 kts 248°